COSMOS 1275 DEB, 12695

Orbit data source: Space-Track

COSMOS 1275 DEB, 12695 is space debris in LEO originally from a launch on Thu, 04 Jun 1981 UTC launched from the Plesetsk Missile And Space Complex (PKMTR). Debris objects in space refer to the collection of defunct objects orbiting the Earth. Examples of debris include non-operational satellites, rocket bodies, and fragments generated from explosions, collisions, or faulty payload assembly.

Loading next visibility...
Identifier
12695, 1981-053AP
Orbit
LEO
Country
Flag of CISCIS
Related business
Manufacturer
Unknown
Mission
Spacecraft
Bus & Motor
Unknown
Mass
Unknown
Launch date (UTC)
1981-06-04 (45 years ago)
Launch vehicle
Unknown
Launch site
Plesetsk Missile And Space Complex (PKMTR)
Object type
Payload
Rocket body
Debris
Shape & HBR
Unknown shape, 0.1 m
Radar Cross Section
Medium (>0.1 m² and <1 m²)

Expand to show TLE details & history
Last TLE update: 4 hours ago

TLE from 4 hours ago
0 COSMOS 1275 DEB
1 12695U 81053AP  26266.28189056  .00000893  00000-0  88481-3 0  9993
2 12695  83.0133 189.7864 0106094 117.3367  37.1051 13.74851217242558
Epoch: 2026-09-23T06:45Z
TLE epoch observation values (Epoch: 2026-09-23T06:45:55.344Z)
Latitude
24.64714°
Longitude
-97.03594°
Altitude
923.199 km
Speed
7.423 km/s
True Right ascension
00h 26m 19s
True Declination
24° 31' 12"
Sunlit
Object was in full shadow at epoch
Visualization orbit readout
Latitude
Unknown
Longitude
Unknown
Altitude
Unknown
Speed
Unknown
Apparent Right ascension
Unknown
Apparent Declination
Unknown
Sunlit
N/A
Visualization observer readout
Local Sidereal Time
04:09:03
Azimuth
Unknown
Elevation
Unknown
Doppler factor
Unknown
Orbital elements
Apogee altitude
1,057.41 km
Perigee altitude
901.293 km
Semi-major axis
7,357.489 km
Eccentricity
0.01061
Inclination
83.0133°
RAAN
189.7864°
Arg. of periapsis
117.3367°
True anomaly
37.84635°
Mean anomaly
37.1051°
Eccentric anomaly
37.47494°
Mean motion
3.43913 °/min
Orbital period
104.68 mins
BSTAR
0.00088481
Loading maneuver chart data...
Computing Atmospheric mass density...

Documentation

Showing up to 5 results
|